Location: Pacheco
(37.9835°N, 122.0752°W)
Time: 23:39:06
(UTC+00:00)

USA-17 - Pass Details

Date: 13 April 2024
Orbit: 388 x 1675 km, 63.3° (Epoch: 20 May)

Event Time Altitude Azimuth Distance (km) Brightness Sun altitude
Exits shadow 11:55:32 - 325° (NW) 2,143 7.8 -19.1°
Reaches altitude 10° 11:56:57 10° 324° (NW) 1,536 7.0 -18.9°
Maximum altitude 12:00:16 79° 240° (WSW) 508 4.4 -18.3°
Drops below altitude 10° 12:04:29 10° 152° (SSE) 1,950 7.6 -17.5°
Sets 12:07:07 0° 151° (SSE) 3,053 8.6 -17.1°
